Find Starlink 3930

NORAD ID: 52568 Int'l Des: 2022-051 Owner: SPXS Country: US Constellation: starlink operational
LEOCIRCULAR

Live Position

Loading 3D Globe...

About Starlink 3930

Description loading...

Upcoming Passes

Passes for default location (London). Set your location on the main map for personalized predictions.

Altitude History

Loading altitude history...

Two-Line Element Set

1 52568U 22051AM 26127.64627751 -.00000376 00000-0 -55264-5 0 9997
2 52568 53.2171 214.4515 0001279 93.7349 266.3789 15.08838208220483
Epoch: May 7, 2026 • Age: 6 hours

Current Status

Altitude 546.1 km
Velocity 7.59 km/s
Sub-Earth Point -21.48°S, 133.22°W
Launch Date May 13, 2022
Age 3.9 years
Type internet

Technical Details

Classification Payload
Mass 297.00 kg
Dry Mass 275.00 kg
Total Mass 297.00 kg
Length 0.20 m
Diameter 2.80 m
Span 9.00 m
Shape Box + pan
Manufacturer SPXS
Bus Type Starlink
Phase Status In Orbit
Owner/State SPXS/US

Most Searched